Weather History for KBWI - April, 2014

Change the Weather History Date:

Friday, April 25, 2014

  Actual Average Record
Temperature  
Mean Temperature 52 °F 57 °F  
Max Temperature 65 °F 68 °F 94 °F (1960)
Min Temperature 38 °F 46 °F 30 °F (1956)
Degree Days  
Heating Degree Days 13 9  
Month to date heating degree days 313 313  
Since 1 July heating degree days 4883 4574  
Cooling Degree Days 0 1  
Month to date cooling degree days 7 7  
Year to date cooling degree days 7 8  
Moisture  
Dew Point 38 °F    
Average Humidity 62    
Maximum Humidity 96    
Minimum Humidity 27    
Precipitation  
Precipitation 0.63 in 0.10 in 2.24 in (1889)
Month to date precipitation 3.98 2.66  
Year to date precipitation 15.65 12.51  
Snow  
Snow 0.00 in 0.00 in T in (1919)
Month to date snowfall T 0.0  
Since 1 July snowfall 39.0 20.1  
Snow Depth 0.00 in    
Sea Level Pressure  
Sea Level Pressure 29.87 in    
Wind  
Wind Speed 8 mph (ESE)    
Max Wind Speed 21 mph    
Max Gust Speed 29 mph    
Visibility 8 miles    
Events Rain    
T = Trace of Precipitation, MM = Missing Value Source: NWS Daily Summary

Daily Weather History Graph

Daily Weather History Graph

Search for Another Location

Airport or City:

Trip Planner

Search our weather history database for the weather conditions in past years. The results will help you decide how hot, cold, wet, or windy it might be!

Date:

Astronomy

Apr. 25, 2014 Rise Set
Actual Time 6:16 AM EDT 7:53 PM EDT
Civil Twilight 5:47 AM EDT 8:22 PM EDT
Nautical Twilight 5:13 AM EDT 8:56 PM EDT
Astronomical Twilight 4:37 AM EDT 9:33 PM EDT
Moon 4:01 AM EDT (4/25) 4:15 PM EDT (4/25)
Length of Visible Light 14h 34m
Length of Day
13h 37m
Waning Crescent, 15% of the Moon is Illuminated
Apr 25
Waning Crescent
Apr 29
New
May 6
First Quarter
May 14
Full
May 21
Last Quarter

Hourly Weather History & Observations

Time (EDT) Temp. Dew Point Humidity Pressure Visibility Wind Dir Wind Speed Gust Speed Precip Events Conditions
12:54 AM 45.0 °F 30.0 °F 56% 30.03 in 10.0 mi Calm Calm - N/A   Scattered Clouds
1:54 AM 45.0 °F 32.0 °F 60% 30.01 in 10.0 mi Calm Calm - N/A   Partly Cloudy
2:54 AM 41.0 °F 30.9 °F 67% 29.99 in 10.0 mi Calm Calm - N/A   Scattered Clouds
3:54 AM 41.0 °F 30.9 °F 67% 30.01 in 10.0 mi Calm Calm - N/A   Scattered Clouds
4:54 AM 41.0 °F 32.0 °F 70% 30.01 in 10.0 mi Calm Calm - N/A   Mostly Cloudy
5:54 AM 39.9 °F 33.1 °F 77% 30.02 in 10.0 mi Calm Calm - N/A   Mostly Cloudy
6:54 AM 45.0 °F 37.0 °F 74% 30.02 in 10.0 mi Calm Calm - N/A   Mostly Cloudy
7:54 AM 50.0 °F 33.1 °F 52% 30.02 in 10.0 mi East 6.9 mph - N/A   Mostly Cloudy
8:54 AM 53.1 °F 25.0 °F 34% 30.01 in 10.0 mi ESE 11.5 mph - N/A   Mostly Cloudy
9:54 AM 55.9 °F 26.1 °F 32% 29.98 in 10.0 mi ESE 13.8 mph 18.4 mph N/A   Mostly Cloudy
10:54 AM 57.9 °F 30.0 °F 35% 29.96 in 10.0 mi ESE 13.8 mph - N/A   Mostly Cloudy
11:54 AM 60.1 °F 28.0 °F 30% 29.94 in 10.0 mi ESE 10.4 mph - N/A   Mostly Cloudy
12:54 PM 62.1 °F 28.0 °F 28% 29.90 in 10.0 mi SE 13.8 mph - N/A   Overcast
1:54 PM 63.0 °F 30.9 °F 30% 29.86 in 10.0 mi SE 16.1 mph 25.3 mph N/A   Mostly Cloudy
2:54 PM 64.0 °F 32.0 °F 30% 29.82 in 10.0 mi SE 16.1 mph 27.6 mph N/A   Mostly Cloudy
3:54 PM 63.0 °F 32.0 °F 31% 29.78 in 10.0 mi SSE 12.7 mph 21.9 mph N/A   Overcast
4:54 PM 63.0 °F 34.0 °F 34% 29.75 in 10.0 mi SE 12.7 mph 24.2 mph N/A   Overcast
5:30 PM 57.2 °F 42.8 °F 59% 29.80 in 2.5 mi SW 9.2 mph - 0.01 in Rain Rain
5:34 PM 55.4 °F 44.6 °F 67% 29.83 in 1.5 mi West 16.1 mph 21.9 mph 0.04 in Rain Heavy Rain
5:54 PM 51.1 °F 46.9 °F 86% 29.86 in 1.2 mi West 6.9 mph - 0.25 in Rain Rain
6:11 PM 51.8 °F 46.4 °F 82% 29.83 in 3.0 mi SSE 4.6 mph - 0.07 in Rain Rain
6:20 PM 51.8 °F 46.4 °F 82% 29.83 in 2.0 mi Calm Calm - 0.12 in Rain Rain
6:54 PM 51.1 °F 48.0 °F 89% 29.77 in 5.0 mi East 12.7 mph - 0.35 in Rain Light Rain
7:16 PM 51.8 °F 48.2 °F 88% 29.75 in 8.0 mi East 10.4 mph - 0.02 in Rain Light Rain
7:54 PM 51.1 °F 48.9 °F 92% 29.75 in 8.0 mi East 4.6 mph - 0.02 in   Overcast
8:35 PM 51.8 °F 48.2 °F 88% 29.74 in 9.0 mi ENE 6.9 mph - N/A   Overcast
8:54 PM 52.0 °F 50.0 °F 93% 29.74 in 7.0 mi ENE 9.2 mph - N/A   Overcast
8:57 PM 51.8 °F 50.0 °F 94% 29.74 in 7.0 mi ENE 11.5 mph - N/A   Overcast
9:46 PM 51.8 °F 48.2 °F 88% 29.74 in 8.0 mi NE 9.2 mph - N/A   Overcast
9:54 PM 52.0 °F 48.9 °F 89% 29.73 in 8.0 mi ENE 6.9 mph - N/A   Overcast
10:54 PM 51.1 °F 48.0 °F 89% 29.73 in 7.0 mi NE 5.8 mph - N/A   Overcast
11:54 PM 50.0 °F 48.0 °F 93% 29.73 in 6.0 mi NW 4.6 mph - N/A   Overcast